When you browse on this site, cookies collect data to enhance your experience and personalize the content and advertising you see.
Visit our Privacy Policy to learn more. By continuing to use the site, you agree to this use of cookies and data.
  • In Hungary
  • List of Countries
  • For 7 days
  • Water Temperature
  • Satellite Maps
  • Weather Map
  • News
  • Weather Widgets
  • user-avatar
    Login

    Hourly Weather Puciska

    Today, 26 May, Sunday

    Time Temperature Precipitation Wind Pressure Humidity
    00:00 +12°C° 0 mm 2 mps 743 mmHg 91%
    01:00 +12°C° 0 mm 1 mps 744 mmHg 88%
    02:00 +12°C° 0 mm 1 mps 744 mmHg 85%
    03:00 +12°C° 0 mm 1 mps 744 mmHg 84%
    04:00 +12°C° 0 mm 1 mps 744 mmHg 84%
    05:00 +12°C° 0 mm 1 mps 744 mmHg 83%
    06:00 +13°C° 0 mm 2 mps 744 mmHg 82%
    07:00 +12°C° 0 mm 3 mps 744 mmHg 80%
    08:00 +13°C° 0 mm 4 mps 744 mmHg 79%
    09:00 +14°C° 0 mm 5 mps 744 mmHg 74%
    10:00 +15°C° 0 mm 5 mps 744 mmHg 68%
    11:00 +16°C° 0 mm 5 mps 744 mmHg 63%
    12:00 +16°C° 0 mm 5 mps 744 mmHg 62%
    13:00 +17°C° 0 mm 5 mps 744 mmHg 62%
    14:00 +17°C° 0 mm 5 mps 744 mmHg 61%
    15:00 +17°C° 0 mm 5 mps 743 mmHg 62%
    16:00 +17°C° 0 mm 5 mps 743 mmHg 63%
    17:00 +17°C° 0 mm 5 mps 743 mmHg 64%
    18:00 +17°C° 0 mm 4 mps 743 mmHg 69%
    19:00 +16°C° 0 mm 3 mps 743 mmHg 75%
    20:00 +15°C° 0 mm 1 mps 743 mmHg 80%
    21:00 +14°C° 0 mm 2 mps 743 mmHg 83%
    22:00 +13°C° 0 mm 2 mps 743 mmHg 85%
    23:00 +12°C° 0 mm 2 mps 743 mmHg 88%

    Tomorrow, 27 May, Monday

    Time Temperature Precipitation Wind Pressure Humidity
    00:00 +11°C° 0 mm 3 mps 743 mmHg 87%
    01:00 +11°C° 0 mm 3 mps 743 mmHg 87%
    02:00 +11°C° 0 mm 3 mps 743 mmHg 86%
    03:00 +11°C° 0 mm 3 mps 743 mmHg 86%
    04:00 +12°C° 0 mm 3 mps 743 mmHg 86%
    05:00 +12°C° 0 mm 3 mps 743 mmHg 86%
    06:00 +14°C° 0 mm 4 mps 743 mmHg 82%
    07:00 +15°C° 0 mm 4 mps 743 mmHg 78%
    08:00 +18°C° 0 mm 4 mps 743 mmHg 74%
    09:00 +19°C° 0 mm 5 mps 743 mmHg 68%
    10:00 +21°C° 0 mm 5 mps 742 mmHg 63%
    11:00 +23°C° 0 mm 6 mps 742 mmHg 57%
    12:00 +24°C° 0 mm 6 mps 742 mmHg 55%
    13:00 +24°C° 0 mm 6 mps 742 mmHg 54%
    14:00 +26°C° 0 mm 6 mps 742 mmHg 53%
    15:00 +24°C° 0.1 mm 6 mps 742 mmHg 57%
    16:00 +24°C° 0.1 mm 6 mps 742 mmHg 61%
    17:00 +23°C° 0.1 mm 5 mps 741 mmHg 65%
    18:00 +22°C° 0 mm 5 mps 741 mmHg 71%
    19:00 +21°C° 0 mm 4 mps 742 mmHg 77%
    20:00 +20°C° 0 mm 3 mps 742 mmHg 83%
    21:00 +19°C° 0 mm 3 mps 742 mmHg 86%
    22:00 +18°C° 0 mm 3 mps 742 mmHg 89%
    23:00 +17°C° 0 mm 2 mps 742 mmHg 92%

    Day after tomorrow, 28 May, Tuesday

    Time Temperature Precipitation Wind Pressure Humidity
    00:00 +17°C° 0 mm 2 mps 742 mmHg 92%
    01:00 +16°C° 0 mm 2 mps 742 mmHg 93%
    02:00 +16°C° 0 mm 1 mps 742 mmHg 94%
    03:00 +16°C° 0 mm 1 mps 742 mmHg 94%
    04:00 +16°C° 0 mm 2 mps 741 mmHg 94%
    05:00 +16°C° 0 mm 2 mps 741 mmHg 95%
    06:00 +17°C° 0.2 mm 2 mps 741 mmHg 94%
    07:00 +17°C° 0.2 mm 3 mps 740 mmHg 93%
    08:00 +18°C° 0.2 mm 4 mps 740 mmHg 91%
    09:00 +20°C° 0.4 mm 5 mps 740 mmHg 86%
    10:00 +21°C° 0.4 mm 5 mps 740 mmHg 80%
    11:00 +23°C° 0.4 mm 6 mps 739 mmHg 74%
    12:00 +24°C° 0.4 mm 6 mps 739 mmHg 70%
    13:00 +26°C° 0.4 mm 6 mps 739 mmHg 66%
    14:00 +27°C° 0.4 mm 6 mps 738 mmHg 62%
    15:00 +26°C° 0.5 mm 5 mps 738 mmHg 66%
    16:00 +25°C° 0.5 mm 5 mps 738 mmHg 71%
    17:00 +23°C° 0.5 mm 4 mps 738 mmHg 75%
    18:00 +21°C° 0.9 mm 4 mps 738 mmHg 80%
    19:00 +20°C° 0.9 mm 3 mps 738 mmHg 85%
    20:00 +18°C° 0.9 mm 2 mps 738 mmHg 90%
    21:00 +18°C° 0.5 mm 2 mps 737 mmHg 92%
    22:00 +17°C° 0.5 mm 2 mps 737 mmHg 93%
    23:00 +17°C° 0.5 mm 3 mps 737 mmHg 95%

    29 May, Wednesday

    Time Temperature Precipitation Wind Pressure Humidity
    00:00 +17°C° 0.5 mm 3 mps 737 mmHg 96%
    01:00 +17°C° 0.5 mm 3 mps 737 mmHg 96%
    02:00 +17°C° 0.5 mm 3 mps 737 mmHg 97%
    03:00 +17°C° 0 mm 3 mps 737 mmHg 97%
    04:00 +16°C° 0 mm 3 mps 737 mmHg 97%
    05:00 +16°C° 0 mm 3 mps 737 mmHg 97%
    06:00 +17°C° 0 mm 3 mps 737 mmHg 96%
    07:00 +17°C° 0 mm 3 mps 738 mmHg 94%
    08:00 +17°C° 0 mm 4 mps 738 mmHg 93%
    09:00 +17°C° 0 mm 4 mps 738 mmHg 91%
    10:00 +17°C° 0 mm 4 mps 739 mmHg 88%
    11:00 +17°C° 0 mm 4 mps 740 mmHg 86%
    12:00 +17°C° 0 mm 4 mps 740 mmHg 83%
    13:00 +18°C° 0 mm 4 mps 740 mmHg 79%
    14:00 +18°C° 0 mm 4 mps 741 mmHg 76%
    15:00 +18°C° 0 mm 3 mps 741 mmHg 77%
    16:00 +18°C° 0 mm 3 mps 741 mmHg 78%
    17:00 +18°C° 0 mm 3 mps 741 mmHg 79%
    18:00 +17°C° 0 mm 3 mps 741 mmHg 82%
    19:00 +16°C° 0 mm 3 mps 742 mmHg 84%
    20:00 +16°C° 0 mm 3 mps 742 mmHg 87%
    21:00 +14°C° 0 mm 3 mps 742 mmHg 87%
    22:00 +14°C° 0 mm 3 mps 743 mmHg 87%
    23:00 +13°C° 0 mm 3 mps 743 mmHg 87%

    30 May, Thursday

    Time Temperature Precipitation Wind Pressure Humidity
    00:00 +13°C° 0 mm 3 mps 743 mmHg 88%
    01:00 +12°C° 0 mm 3 mps 743 mmHg 89%
    02:00 +12°C° 0 mm 3 mps 743 mmHg 90%
    03:00 +11°C° 1.1 mm 3 mps 744 mmHg 91%
    04:00 +11°C° 1.1 mm 3 mps 744 mmHg 93%
    05:00 +10°C° 1.1 mm 2 mps 744 mmHg 95%
    06:00 +11°C° 0.2 mm 3 mps 745 mmHg 93%
    07:00 +11°C° 0.2 mm 3 mps 745 mmHg 92%
    08:00 +11°C° 0.2 mm 3 mps 746 mmHg 90%
    09:00 +12°C° 0 mm 4 mps 746 mmHg 83%
    10:00 +14°C° 0 mm 4 mps 747 mmHg 75%
    11:00 +15°C° 0 mm 4 mps 747 mmHg 67%
    12:00 +17°C° 0 mm 4 mps 747 mmHg 65%
    13:00 +17°C° 0 mm 4 mps 748 mmHg 63%
    14:00 +17°C° 0 mm 5 mps 748 mmHg 61%
    15:00 +17°C° 0 mm 4 mps 748 mmHg 62%
    16:00 +17°C° 0 mm 4 mps 749 mmHg 63%
    17:00 +17°C° 0 mm 4 mps 749 mmHg 64%
    18:00 +16°C° 0 mm 3 mps 749 mmHg 69%
    19:00 +14°C° 0 mm 3 mps 749 mmHg 75%
    20:00 +14°C° 0 mm 2 mps 750 mmHg 81%
    21:00 +13°C° 0 mm 2 mps 750 mmHg 85%
    22:00 +12°C° 0 mm 2 mps 751 mmHg 88%
    23:00 +9°C° 0 mm 2 mps 751 mmHg 92%

    31 May, Friday

    Time Temperature Precipitation Wind Pressure Humidity
    00:00 +10°C° 0 mm 1 mps 751 mmHg 92%
    01:00 +9°C° 0 mm 1 mps 751 mmHg 91%
    02:00 +8°C° 0 mm 0 mps 751 mmHg 91%
    03:00 +9°C° 0 mm 1 mps 751 mmHg 91%
    04:00 +9°C° 0 mm 1 mps 750 mmHg 91%
    05:00 +8°C° 0 mm 2 mps 750 mmHg 92%
    06:00 +10°C° 0 mm 2 mps 750 mmHg 84%
    07:00 +12°C° 0 mm 3 mps 750 mmHg 76%
    08:00 +14°C° 0 mm 4 mps 750 mmHg 68%
    09:00 +15°C° 0 mm 4 mps 750 mmHg 63%
    10:00 +17°C° 0 mm 5 mps 749 mmHg 59%
    11:00 +19°C° 0 mm 5 mps 749 mmHg 54%
    12:00 +20°C° 0.1 mm 5 mps 749 mmHg 55%
    13:00 +20°C° 0.1 mm 6 mps 749 mmHg 56%
    14:00 +21°C° 0.1 mm 6 mps 748 mmHg 56%
    15:00 +19°C° 1.1 mm 6 mps 749 mmHg 67%
    16:00 +17°C° 1.1 mm 6 mps 749 mmHg 78%
    17:00 +15°C° 1.1 mm 6 mps 749 mmHg 88%
    18:00 +13°C° 0.3 mm 5 mps 750 mmHg 88%
    19:00 +10°C° 0.3 mm 4 mps 750 mmHg 87%
    20:00 +8°C° 0.3 mm 3 mps 751 mmHg 87%
    21:00 +7°C° 0 mm 3 mps 752 mmHg 88%
    22:00 +5°C° 0 mm 3 mps 753 mmHg 90%
    23:00 +6°C° 0 mm 2 mps 753 mmHg 91%
    Show more